[TLELIST] Archives

 

Current TLEs

April 29th 2008 PST

HST 1 20580U 90037B 08118.92232710 +.00000473 +00000-0 +23848-4 0 01252 2 20580 028.4694 291.0659 0003827 207.1275 152.9113 15.00371556787429 ISS (ZARYA) 1 25544U 98067A 08120.14847222 .00018718 00000-0 12249-3 0 3890 2 25544 051.6411 269.1038 0007292 149.4341 188.3381 15.75831812540782 CXO 1 25867U 99040B 08119.95833333 .00000541 00000-0 10000-3 0 1925 2 25867 063.5343 081.7860 6748364 279.4823 356.1009 00.37806922 3449 ____________________________________________________________________ These 2-Line ...Continue Reading

Current TLEs

April 28th 2008 PST

HST 1 20580U 90037B 08118.85580782 .00000471 00000-0 23626-4 0 1239 2 20580 028.4694 291.4996 0003835 206.4677 153.5717 15.00371493787410 ISS (ZARYA) 1 25544U 98067A 08119.52615216 .00019288 00000-0 12620-3 0 3858 2 25544 051.6419 272.3107 0007433 145.6521 259.3470 15.75809745540696 CXO 1 25867U 99040B 08119.95833333 .00000541 00000-0 10000-3 0 1925 2 25867 063.5343 081.7860 6748364 279.4823 356.1009 00.37806922 3449 ____________________________________________________________________ These 2-Line ...Continue Reading

Current TLEs

April 27th 2008 PST

HST 1 20580U 90037B 08117.79149913 .00000442 00000-0 21376-4 0 1225 2 20580 028.4694 298.4417 0003869 196.6875 163.3588 15.00370663787257 ISS (ZARYA) 1 25544U 98067A 08117.83266716 .00016521 00000-0 10905-3 0 3780 2 25544 051.6423 281.0302 0007709 142.5164 009.2066 15.75738574540425 CXO 1 25867U 99040B 08117.33333333 .00000454 00000-0 10000-3 0 1912 2 25867 063.5226 081.8430 6743513 279.5019 358.7525 00.37806378 3437 ____________________________________________________________________ These 2-Line ...Continue Reading

Current TLEs

April 26th 2008 PST

HST 1 20580U 90037B 08116.52763230 .00000392 00000-0 17535-4 0 1214 2 20580 028.4695 306.6840 0003879 184.1970 175.8595 15.00369646787063 ISS (ZARYA) 1 25544U 98067A 08117.50166446 .00015357 00000-0 10176-3 0 3767 2 25544 051.6403 282.7333 0007076 139.8958 292.8919 15.75725221540378 CXO 1 25867U 99040B 08117.33333333 .00000454 00000-0 10000-3 0 1912 2 25867 063.5226 081.8430 6743513 279.5019 358.7525 00.37806378 3437 ____________________________________________________________________ These 2-Line ...Continue Reading

Current TLEs

April 25th 2008 PST

HST 1 20580U 90037B 08114.93116705 +.00000377 +00000-0 +16321-4 0 01323 2 20580 028.4696 317.0950 0003862 168.0558 192.0121 15.00368809786826 ISS (ZARYA) 1 25544U 98067A 08116.35903090 -.02158295 00000-0 -15827-1 0 3694 2 25544 051.6414 288.6306 0003577 107.1001 319.6264 15.75547993540193 CXO 1 25867U 99040B 08114.62500000 .00000385 00000-0 10000-3 0 1900 2 25867 063.5125 081.9044 6737701 279.5311 350.0399 00.37806185 3423 ____________________________________________________________________ These 2-Line ...Continue Reading

Current TLEs

April 24th 2008 PST

HST 1 20580U 90037B 08114.99768649 .00000386 00000-0 17057-4 0 1203 2 20580 028.4696 316.6612 0003861 168.4509 191.6171 15.00368914786833 ISS (ZARYA) 1 25544U 98067A 08115.47862078 .00018114 00000-0 11169-3 0 3649 2 25544 051.6433 293.1550 0004114 070.1154 035.1194 15.77239805540051 CXO 1 25867U 99040B 08114.62500000 .00000385 00000-0 10000-3 0 1900 2 25867 063.5125 081.9044 6737701 279.5311 350.0399 00.37806185 3423 ____________________________________________________________________ These 2-Line ...Continue Reading

Current TLEs

April 23rd 2008 PST

HST 1 20580U 90037B 08113.86685640 .00000368 00000-0 15685-4 0 1190 2 20580 028.4695 324.0348 0003849 157.1852 202.8908 15.00368274786666 ISS (ZARYA) 1 25544U 98067A 08114.52451538 .00016440 00000-0 10194-3 0 3589 2 25544 051.6421 298.0772 0003817 068.4245 015.7387 15.77200782539900 CXO 1 25867U 99040B 08114.62500000 .00000385 00000-0 10000-3 0 1900 2 25867 063.5125 081.9044 6737701 279.5311 350.0399 00.37806185 3423 ____________________________________________________________________ These 2-Line ...Continue Reading

Current TLEs

April 22nd 2008 PST

HST 1 20580U 90037B 08111.93779220 +.00000352 +00000-0 +14407-4 0 01356 2 20580 028.4694 336.6143 0003809 137.5764 222.5121 15.00367305786375 ISS (ZARYA) 1 25544U 98067A 08113.50298569 -.00000460 00000-0 12383-5 0 3512 2 25544 051.6442 303.3458 0004093 057.6326 342.5110 15.77159138539746 CXO 1 25867U 99040B 08112.00000000 .00000355 00000-0 10000-3 0 1890 2 25867 063.5010 081.9508 6731371 279.5782 352.6474 00.37806039 3419 ____________________________________________________________________ These 2-Line ...Continue Reading

Current TLEs

April 21st 2008 PST

HST 1 20580U 90037B 08112.00431167 .00000377 00000-0 16326-4 0 1180 2 20580 028.4695 336.1807 0003839 137.3622 222.7265 15.00367540786385 ISS (ZARYA) 1 25544U 98067A 08112.49974262 .00022753 00000-0 13988-3 0 3440 2 25544 051.6410 308.5388 0003433 050.6617 049.4708 15.77133025539588 CXO 1 25867U 99040B 08112.00000000 .00000355 00000-0 10000-3 0 1890 2 25867 063.5010 081.9508 6731371 279.5782 352.6474 00.37806039 3419 ____________________________________________________________________ These 2-Line ...Continue Reading

Current TLEs

April 20th 2008 PST

HST 1 20580U 90037B 08110.87347993 .00000332 00000-0 12866-4 0 1171 2 20580 028.4695 343.5568 0003740 128.1019 231.9906 15.00366782786213 ISS (ZARYA) 1 25544U 98067A 08111.53621903 .00021323 00000-0 12819-3 0 3393 2 25544 051.6404 313.4945 0001405 026.5460 357.8200 15.77689988539431 CXO 1 25867U 99040B 08112.00000000 .00000355 00000-0 10000-3 0 1890 2 25867 063.5010 081.9508 6731371 279.5782 352.6474 00.37806039 3419 ____________________________________________________________________ These 2-Line ...Continue Reading
  • This mailing list is a public mailing list - anyone may join or leave, at any time.
  • This mailing list is announce-only.

International Space Station (ISS) / Hubble Space Telescope (HST) / Chandra X-Ray Observatory Orbital Data via EMAIL

Privacy Policy:

Private list